LEMUR 2 REDFERN-GOES

Last updated on April 8, 2017, 12:15 a.m. UTC

1 42059U 98067LA  17096.95614585  .00022390  00000-0  32356-3 0  9994
2 42059  51.6432  33.1122 0009563  38.3245 321.8412 15.55804770  4910

Satellite is not in orbit.